Location: New Town
(33.2710°N, 90.7534°W)
Time: 02:12:38
(UTC+00:00)

Vanguard 2 - All Passes

Search period start: 12 May 2021 00:00
Search period end: 22 May 2021 00:00
Orbit: 552 x 2938 km, 32.9° (Epoch: 11 May)

Date Brightness Start Highest point End Pass type
(mag) Time Alt. Az. Time Alt. Az. Time Alt. Az.
12 May - 09:39:21 10° SSW 09:46:22 32° SE 09:57:01 10° E visible
12 May - 11:45:38 10° WSW 11:55:38 74° SSE 12:11:41 10° E daylight
12 May - 13:54:32 10° W 14:07:41 89° S 14:25:50 10° E daylight
12 May - 16:04:54 10° W 16:20:52 74° SSW 16:38:26 10° ESE daylight
12 May - 18:17:12 10° W 18:32:58 42° SW 18:47:20 10° SSE daylight
12 May - 20:37:14 10° WSW 20:42:55 12° SW 20:48:10 10° SSW daylight
13 May - 09:56:14 10° SSW 10:03:38 43° SE 10:15:30 10° E visible
13 May - 12:03:17 10° WSW 12:13:30 81° SSE 12:29:53 10° E daylight
13 May - 14:12:24 10° W 14:25:48 87° S 14:43:59 10° E daylight
13 May - 16:22:53 10° WNW 16:38:46 65° SSW 16:56:00 10° SE daylight
13 May - 18:35:51 10° W 18:50:25 33° SW 19:03:49 10° SSE daylight
14 May - 08:10:07 10° SSE 08:13:32 14° SE 08:17:39 10° ESE visible
14 May - 10:13:24 10° SW 10:21:03 54° SSE 10:33:48 10° E visible
14 May - 12:21:01 10° W 12:31:27 86° S 12:48:05 10° E daylight
14 May - 14:30:17 10° W 14:43:53 83° SSW 15:02:03 10° ESE daylight
14 May - 16:40:54 10° W 16:56:34 57° SSW 17:13:22 10° SE daylight
14 May - 18:55:00 10° W 19:07:49 25° SW 19:19:45 10° S daylight
15 May - 08:25:43 10° S 08:30:35 21° SE 08:37:18 10° E visible
15 May - 10:30:47 10° WSW 10:38:39 65° SSE 10:51:59 10° E visible
15 May - 12:38:47 10° W 12:49:28 89° S 13:06:18 10° E daylight
15 May - 14:48:09 10° W 15:01:55 77° SSW 15:19:59 10° ESE daylight
15 May - 16:59:04 10° W 17:14:18 47° SSW 17:30:26 10° SE daylight
15 May - 19:15:05 10° W 19:25:12 18° SW 19:34:47 10° S daylight
16 May - 08:42:12 10° SSW 08:47:44 30° SE 08:56:05 10° E visible
16 May - 10:48:18 10° WSW 10:56:22 75° SSE 11:10:10 10° E daylight
16 May - 12:56:35 10° W 13:07:30 88° S 13:24:31 10° E daylight
16 May - 15:06:02 10° W 15:19:52 70° SSW 15:37:45 10° ESE daylight
16 May - 17:17:26 10° W 17:31:55 39° SW 17:47:10 10° SSE daylight
16 May - 19:37:46 10° WSW 19:42:37 12° SW 19:47:21 10° SSW daylight
17 May - 08:59:08 10° SW 09:05:02 41° SE 09:14:30 10° E visible
17 May - 11:05:57 10° WSW 11:14:12 83° SSE 11:28:21 10° E daylight
17 May - 13:14:24 10° W 13:25:32 86° S 13:42:41 10° ESE daylight
17 May - 15:23:57 10° W 15:37:46 61° SSW 15:55:17 10° SE daylight
17 May - 17:36:09 10° W 17:49:31 30° SW 18:03:27 10° SSE daylight
18 May - 07:13:29 10° SSE 07:15:16 11° SE 07:17:15 10° ESE visible
18 May - 09:16:21 10° SW 09:22:29 53° SSE 09:32:43 10° E visible
18 May - 11:23:40 10° W 11:32:06 87° S 11:46:34 10° E daylight
18 May - 13:32:12 10° W 13:43:32 80° SSW 14:00:45 10° ESE daylight
18 May - 15:41:58 10° W 15:55:36 52° SSW 16:12:33 10° SE daylight
18 May - 17:55:28 10° W 18:07:05 23° SW 18:19:06 10° S daylight
19 May - 07:28:44 10° S 07:32:24 18° SE 07:37:11 10° E visible
19 May - 09:33:47 10° WSW 09:40:05 65° SSE 09:50:52 10° E visible
19 May - 11:41:25 10° W 11:50:04 89° S 12:04:46 10° E daylight
19 May - 13:50:01 10° W 14:01:30 73° SSW 14:18:40 10° ESE daylight
19 May - 16:00:08 10° W 16:13:22 43° SSW 16:29:31 10° SSE daylight
19 May - 18:15:59 10° WSW 18:24:40 16° SW 18:33:35 10° SSW daylight
20 May - 07:45:15 10° SSW 07:49:38 27° SE 07:55:54 10° E visible
20 May - 09:51:20 10° WSW 09:57:48 76° SSE 10:08:59 10° E visible
20 May - 11:59:10 10° W 12:08:01 87° S 12:22:58 10° E daylight
20 May - 14:07:52 10° W 14:19:24 64° SSW 14:36:23 10° SE daylight
20 May - 16:18:33 10° W 16:31:07 34° SW 16:46:04 10° SSE daylight
21 May - 08:02:14 10° SW 08:06:58 39° SSE 08:14:13 10° E visible
21 May - 10:08:59 10° WSW 10:15:36 84° S 10:27:08 10° E visible
21 May - 12:16:55 10° W 12:25:58 83° S 12:41:06 10° ESE daylight
21 May - 14:25:45 10° W 14:37:17 55° SSW 14:53:50 10° SE daylight
21 May - 16:37:25 10° W 16:48:51 26° SW 17:02:05 10° SSE daylight
